Hourly Data Report for October 07, 2017

All times are specified in Local Standard Time (LST). Add 1 hour to adjust for Daylight Saving Time where and when it is observed.

WINNIPEG THE FORKS
MANITOBA

49°53'18.008" N
97°07'46.007" W
230.00 m
5023262
71579
XWN

Download Data

Hourly Data (October 2017)
Hourly Data Report for October 7, 2017
Temp Definition
°C
Dew Point Temp Definition
°C
Rel Hum Definition
%
Wind Dir Definition
10's deg

Wind Spd Definition
km/h
Visibility Definition
km
Stn Press Definition
kPa
Hmdx Definition


Wind Chill Definition


Weather Definition


TIME
00:00 10.8 4.4 65 20 8   97.09     LegendNANA
01:00 10.6 4.4 66 19 8   96.96     LegendNANA
02:00 10.4 4.6 67 20 7   96.83     LegendNANA
03:00 10.5 4.7 67 20 12   96.69     LegendNANA
04:00 10.1 4.7 69 19 12   96.57     LegendNANA
05:00 9.9 4.9 71 20 12   96.47     LegendNANA
06:00 9.7 5.1 73 20 9   96.37     LegendNANA
07:00 9.4 5.2 75 19 10   96.27     LegendNANA
08:00 10.7 5.7 72 21 12   96.17     LegendNANA
09:00 11.7 6.0 68 21 13   96.12     LegendNANA
10:00 13.5 5.7 59 21 12   96.07     LegendNANA
11:00 16.6 4.1 43 25 6   96.07     LegendNANA
12:00 17.1 4.1 42 25 8   96.09     LegendNANA
13:00 17.8 4.2 41 29 10   96.13     LegendNANA
14:00 17.4 4.5 42 31 10   96.19     LegendNANA
15:00 17.6 4.1 41 28 9   96.29     LegendNANA
16:00 17.3 4.2 42 25 8   96.31     LegendNANA
17:00 17.7 3.3 38 25 7   96.33     LegendNANA
18:00 16.6 3.2 41 22 6   96.40     LegendNANA
19:00 15.5 3.4 44 22 6   96.42     LegendNANA
20:00 14.1 5.3 55 23 11   96.57     LegendNANA
21:00 11.1 7.3 77 19 4   96.46     LegendNANA
22:00 9.7 7.1 84 21 4   96.42     LegendNANA
23:00 10.6 6.7 76 23 6   96.54     LegendNANA

Notes on Data Quality.

Legend

  • E = Estimated
  • M = Missing
  • NA = Not Available
  • ‡ = Partner data that is not subject to review by the National Climate Archives
Date modified: